User: anonymous   Login
Location: Unspecified
(0.0000°N, 0.0000°E)
Time: 02:57:49
(UTC+00:00)
Language:

Nimbus 6 - Orbit

View from above orbital plane
View from above orbital plane
View from above satellite
View from above satellite

Ground track
Ground track

The orbit data is extracted from the following two-line orbital elements,

1  7924U 75052A   18171.63121316 -.00000048 +00000-0 -37010-5 0  9992
2  7924 100.2002 057.5421 0008564 060.3889 329.1699 13.40710594105021
Epoch (UTC): 20 June 2018 15:08:56
Eccentricity: 0.0008564
inclination: 100.2002°
perigee height: 1100 km
apogee height: 1113 km
right ascension of ascending node: 57.5421°
argument of perigee: 60.3889°
revolutions per day: 13.40710594
mean anomaly at epoch: 329.1699°
orbit number at epoch: 10502

The dashed part of the orbit path shows where the satellite is in the earth's shadow,  

DLR